Hourly Data Report for October 29, 2014

All times are specified in Local Standard Time (LST). Add 1 hour to adjust for Daylight Saving Time where and when it is observed.

ARVIAT A
NUNAVUT

61°05'38.000" N
94°04'18.000" W
10.40 m
2300427
71174
YEK

Download Data

Hourly Data (October 2014)
Hourly Data Report for October 29, 2014
Temp Definition
°C
Dew Point Temp Definition
°C
Rel Hum Definition
%
Wind Dir Definition
10's deg

Wind Spd Definition
km/h
Visibility Definition
km
Stn Press Definition
kPa
Hmdx Definition


Wind Chill Definition


Weather Definition


TIME
00:00 Legend Double Dagger -11.1 -12.0 93 31 9 16.1 102.03   -16 LegendNANA
01:00 Legend Double Dagger -11.4 -12.2 94 32 11 16.1 101.99   -17 LegendNANA
02:00 Legend Double Dagger -11.3 -12.2 93 31 9 16.1 101.96   -16 LegendNANA
03:00 Legend Double Dagger -11.2 -12.0 94 31 9 16.1 101.96   -16 LegendNANA
04:00 Legend Double Dagger -11.1 -12.0 93 31 9 16.1 101.93   -16 LegendNANA
05:00 Legend Double Dagger -10.9 -11.7 94 LegendMM 4 16.1 101.90   -13 LegendNANA
06:00 Legend Double Dagger -10.6 -11.4 94 30 5 16.1 101.87   -14 LegendNANA
07:00 Legend Double Dagger -10.3 -11.1 94 29 5 16.1 101.86   -13 LegendNANA
08:00 Legend Double Dagger -9.8 -10.6 94 29 5 16.1 101.82   -13 LegendNANA
09:00 Legend Double Dagger -9.8 -10.6 94 26 4 16.1 101.78   -12 LegendNANA
10:00 Legend Double Dagger -9.4 -10.2 94 27 4 16.1 101.75   -12 LegendNANA
11:00 Legend Double Dagger -8.8 -9.7 93 18 4 16.1 101.72   -11 LegendNANA
12:00 Legend Double Dagger -7.3 -8.3 93 22 5 11.3 101.69   -10 LegendNANA
13:00 Legend Double Dagger -6.4 -8.0 89 23 13 16.1 101.68   -12 LegendNANA
14:00 Legend Double Dagger -6.0 -7.2 91 22 13 4.8 101.67   -11 Snow
15:00 Legend Double Dagger -5.7 -7.6 87 22 15 16.1 101.65   -11 Snow
16:00 Legend Double Dagger -5.6 -7.4 87 23 9 8.1 101.65   -10 Snow
17:00 Legend Double Dagger -5.7 -6.7 93 22 9 6.4 101.66   -10 Snow
18:00 Legend Double Dagger -5.9 -6.7 94 22 9 4.8 101.66   -10 Snow
19:00 Legend Double Dagger -5.7 -6.4 95 21 11 2.8 101.67   -10 Snow
20:00 Legend Double Dagger -5.7 -6.2 96 22 8 2.0 101.69   -9 Snow
21:00 Legend Double Dagger -6.4 -6.9 96 22 8 16.1 101.70   -10 Snow
22:00 Legend Double Dagger -6.8 -7.2 97 25 8 9.7 101.75   -11 Snow
23:00 Legend Double Dagger -7.0 -7.4 97 29 11 16.1 101.80   -12 Snow

Notes on Data Quality.

Legend

  • E = Estimated
  • M = Missing
  • NA = Not Available
  • ‡ = Partner data that is not subject to review by the National Climate Archives
Date modified: